Theta_e
319 319 321 319 320 320 321 320 317 315 314 315 316 315 313 312 312 310 308 305 304 304 304 302 301 301 300 299 298 298 297 297 296 295 294 294 297 297
317 319 320 321 321 320 320 321 318 318 315 314 314 315 312 311 309 308 306 305 304 303 302 302 301 299 298 297 296 296 296 296 296 295 294 294 295 297
318 319 319 320 320 320 318 318 317 317 314 314 313 313 311 310 308 306 304 303 301 300 300 299 299 298 296 296 296 295 295 295 295 295 296 296 296 296
319 320 320 321 321 319 318 317 316 317 316 316 313 311 310 309 306 306 303 300 299 299 296 295 293 292 292 291 290 290 289 288 288 289 290 292 294 296
319 321 320 320 320 320 319 319 319 316 315 313 311 310 308 306 305 303 302 300 298 296 294 291 289 288 288 288 288 288 287 287 286 286 286 286 286 289
321 321 320 320 320 319 318 317 316 314 311 311 311 306 305 304 302 301 298 296 294 291 289 288 288 288 288 288 288 287 287 286 286 286 286 285 285 285
321 321 320 320 318 318 316 314 312 310 311 309 304 303 301 300 298 296 294 292 290 289 288 288 288 288 288 288 288 287 287 285 285 285 285 285 285 287
322 320 319 318 315 314 312 310 308 308 305 303 301 300 299 295 294 292 290 289 289 288 288 287 287 288 289 288 287 286 285 285 284 285 285 285 284 287
319 318 316 314 311 309 307 304 303 302 301 300 298 297 294 291 289 288 288 288 288 288 287 287 288 288 288 288 287 286 285 284 285 285 284 284 283 290
314 313 309 307 305 304 303 302 301 300 299 297 294 291 289 286 285 284 285 285 285 286 286 287 288 288 287 288 287 286 285 285 285 285 285 285 286 286
308 306 304 303 302 300 299 299 298 296 291 289 288 288 285 284 284 283 283 285 286 286 286 286 286 287 287 286 286 287 286 286 286 285 285 286 287 288
304 302 300 299 299 298 296 293 290 289 288 285 284 284 284 283 283 282 281 282 283 284 286 285 285 284 285 286 286 286 286 287 286 286 285 286 287 287
300 299 297 296 294 292 289 288 286 285 283 283 282 282 282 282 281 281 281 280 281 282 283 281 282 282 282 283 283 284 284 286 287 287 286 287 287 287
298 296 294 292 290 287 286 284 283 284 284 283 282 282 282 282 282 284 282 280 278 278 278 278 278 279 280 281 282 283 284 285 287 286 286 286 286 286
294 293 292 291 288 286 286 284 282 282 281 281 280 280 279 279 278 278 278 278 278 278 278 277 277 277 279 280 281 282 282 284 286 286 286 286 285 285
291 290 288 285 282 281 281 281 280 280 279 278 278 278 278 277 277 277 277 277 276 277 277 276 276 277 278 279 280 281 282 284 287 286 286 286 285 285
287 284 282 281 281 281 280 279 278 278 277 277 276 276 276 276 276 275 275 276 276 277 277 276 276 277 277 278 279 280 282 284 286 287 286 285 285 285
283 282 281 280 280 279 279 278 277 277 276 275 274 274 274 274 274 274 274 274 275 275 275 276 276 276 277 279 279 281 283 285 286 286 286 286 285 285
280 280 279 278 277 277 277 276 275 275 273 273 273 273 273 272 272 273 273 274 274 274 274 274 274 275 277 278 279 279 283 285 286 286 285 285 285 285
278 277 276 276 275 275 274 274 273 272 272 271 271 270 270 270 271 271 272 272 272 272 272 273 274 275 275 276 275 278 281 283 285 285 285 285 285 285
275 275 274 273 273 272 271 271 270 270 270 269 269 269 269 269 269 270 270 270 270 271 272 273 273 273 272 273 274 276 279 282 284 285 285 285 285 285
272 271 271 270 270 269 269 269 269 269 268 268 268 268 268 268 268 268 269 269 270 270 271 271 272 272 273 274 275 276 277 282 284 285 285 284 285 285
269 269 269 268 268 268 268 267 267 267 267 266 266 267 267 267 267 267 268 268 269 269 270 270 271 272 272 273 274 276 276 280 284 284 284 283 283 282
Wind_Speed
29 29 30 31 30 32 34 33 31 21 25 30 29 30 26 25 25 23 21 23 21 24 28 29 29 30 31 33 34 35 36 39 41 41 41 41 40 40
30 30 30 32 34 33 31 35 30 26 26 31 28 28 26 24 26 24 23 25 25 27 27 30 30 30 31 32 33 35 37 39 40 41 42 42 42 40
34 33 39 45 44 42 43 34 34 37 29 35 33 30 26 25 28 24 23 24 17 22 26 29 30 31 31 33 35 38 40 42 45 46 47 48 49 45
37 42 41 35 34 41 38 40 41 37 37 37 38 30 27 28 27 25 24 16 18 21 24 24 27 29 32 34 37 40 41 43 45 47 50 50 50 50
39 41 35 32 32 35 33 35 36 34 35 37 31 28 31 27 24 24 25 22 18 22 26 27 28 30 31 32 33 34 34 37 38 40 42 43 46 48
40 35 33 32 36 32 33 33 33 32 30 26 29 29 26 23 23 22 17 16 17 21 26 27 27 28 27 29 29 30 32 33 35 37 38 39 40 39
34 32 32 36 30 29 30 27 28 28 28 30 25 23 21 19 18 12 16 17 19 21 24 23 22 25 27 30 31 30 31 32 33 36 37 37 38 35
34 33 33 30 28 26 24 23 25 24 24 22 21 20 17 16 16 15 16 17 17 13 19 21 23 26 28 26 26 29 27 29 32 34 36 36 32 30
31 30 29 27 24 21 22 21 20 19 18 17 16 16 16 16 15 16 16 16 17 17 20 23 20 23 22 21 26 30 28 27 29 29 31 32 27 25
26 23 21 19 18 17 16 15 14 15 15 16 16 17 19 21 21 19 19 20 21 21 18 25 18 22 23 21 25 29 29 23 24 27 28 27 23 24
18 16 15 14 14 13 12 12 13 14 13 13 17 21 22 22 22 22 21 16 20 18 17 23 21 20 23 25 22 19 22 22 27 24 21 22 21 21
15 14 13 11 10 10 9 9 10 13 14 16 17 19 20 22 21 21 19 19 17 18 12 17 17 17 21 15 15 16 20 22 28 29 23 23 25 20
11 10 8 7 3 4 7 9 11 14 15 16 17 18 18 18 18 18 21 21 21 22 20 22 18 20 23 31 26 23 22 22 21 21 17 15 15 20
8 8 7 5 5 7 10 11 12 15 17 18 18 18 20 21 22 25 26 25 23 25 25 24 28 23 25 29 31 25 20 20 22 20 15 16 19 17
5 5 7 9 10 13 15 16 17 16 17 17 17 16 15 17 21 23 21 22 24 25 26 26 26 27 24 28 31 28 27 23 19 18 15 15 12 12
6 7 10 10 10 12 12 12 14 15 17 15 13 14 16 17 18 18 20 21 22 21 18 20 21 22 24 25 26 31 25 26 16 17 15 17 17 13
8 7 5 5 6 7 9 11 9 10 11 12 14 16 17 17 18 19 20 21 22 23 21 18 18 20 23 26 30 29 31 29 28 18 17 17 16 14
4 2 4 6 6 8 9 10 11 12 12 14 15 17 18 18 20 20 20 21 22 23 23 21 21 21 22 23 22 29 31 33 24 18 18 17 14 14
4 5 6 7 8 9 11 12 13 14 16 16 18 18 19 20 21 21 21 21 22 23 23 22 21 20 23 26 23 21 24 24 20 21 20 17 15 13
6 7 7 9 10 11 12 13 15 16 17 18 19 19 20 20 21 21 20 20 22 23 24 22 19 19 21 24 30 27 18 21 16 23 18 16 13 15
7 7 9 9 11 12 14 16 17 18 19 19 19 20 20 20 21 20 20 21 22 21 23 22 21 24 25 23 27 27 26 17 21 19 18 16 14 12
7 8 9 11 12 13 14 15 16 17 18 18 19 19 19 18 19 19 19 20 20 20 22 23 22 21 21 21 24 26 28 16 20 21 15 16 12 11
8 8 9 11 12 13 14 15 16 16 17 17 17 17 17 18 18 18 19 19 19 20 21 23 22 20 21 21 22 26 26 16 20 25 20 18 15 10
Wind_Direction
260 261 260 264 265 266 264 260 264 247 260 275 261 257 259 253 252 246 252 264 275 274 268 261 259 259 260 260 259 259 260 263 266 268 269 269 267 267
267 265 270 273 270 266 276 266 255 255 270 273 263 255 247 244 240 243 253 267 271 274 264 260 261 264 265 265 265 266 267 268 270 270 269 267 267 267
268 270 282 284 273 266 262 275 284 272 264 260 255 246 241 243 242 246 258 266 262 271 263 261 265 268 269 270 270 270 270 270 270 269 268 267 265 266
274 279 280 282 272 274 269 267 264 265 253 252 238 238 235 240 242 254 259 255 261 261 267 263 269 271 271 272 272 272 273 273 273 272 269 269 268 266
271 281 270 269 273 270 267 263 259 254 245 238 233 241 237 238 245 252 256 262 262 263 273 274 274 273 275 278 277 280 280 278 279 278 276 273 269 265
273 272 263 267 270 267 267 262 259 250 236 235 245 241 240 240 250 255 263 264 264 272 278 277 278 280 282 282 284 285 285 284 285 286 285 283 278 272
266 263 263 264 264 266 261 253 245 235 230 232 236 241 244 250 265 261 256 264 268 273 277 278 281 286 289 289 289 289 291 293 292 291 290 286 278 272
260 259 260 259 257 257 250 237 231 230 235 234 233 241 253 260 254 258 264 268 274 270 274 277 283 287 285 282 284 290 292 291 291 293 292 290 278 270
256 254 251 250 245 238 230 215 216 220 227 239 248 266 276 258 256 260 265 268 270 269 273 275 280 278 278 278 285 289 298 294 292 294 294 292 275 249
242 243 238 228 223 222 221 224 230 238 252 269 281 270 265 264 269 269 270 272 275 279 274 275 280 274 280 276 280 289 299 295 292 295 295 289 276 261
219 212 212 213 213 215 227 240 259 274 278 272 275 275 272 272 273 275 277 274 276 275 269 275 279 282 282 281 287 290 295 307 303 298 288 285 267 255
196 196 198 206 221 239 259 276 281 283 285 280 279 279 279 280 276 274 271 271 276 287 290 269 273 292 298 277 277 278 289 290 290 303 282 275 264 251
188 194 209 230 254 285 286 286 285 287 285 284 284 283 281 277 276 277 278 275 273 267 273 276 279 281 277 285 288 289 288 285 286 292 298 277 242 221
212 224 237 255 291 300 296 293 291 290 285 282 282 282 281 278 277 283 282 276 270 273 276 273 281 281 281 283 286 294 291 279 276 280 283 269 234 222
239 264 280 297 305 297 290 284 285 286 286 288 287 284 282 281 282 287 285 282 283 282 282 281 279 279 275 277 284 286 290 288 269 264 255 247 233 222
303 319 322 319 301 287 298 298 296 292 292 294 292 290 293 295 293 291 289 291 291 290 286 285 283 278 277 274 278 282 281 274 268 248 245 231 226 223
321 327 322 305 302 296 299 303 303 299 298 295 298 299 298 295 292 293 292 292 292 294 294 293 287 282 278 278 277 275 280 273 264 238 226 224 225 232
339 336 314 314 314 307 306 304 305 307 304 300 303 302 300 297 295 293 294 292 293 294 296 297 297 295 290 283 273 283 278 267 238 226 217 216 227 229
15 357 332 331 327 319 312 309 308 306 307 309 304 301 299 296 298 297 295 294 294 294 295 298 299 299 296 289 287 276 270 266 222 209 207 213 220 229
9 357 342 332 324 316 311 308 304 303 303 302 301 300 300 298 298 296 295 294 294 294 295 299 298 295 290 289 289 282 256 261 239 202 201 208 214 221
352 342 330 320 314 311 308 307 305 305 304 307 305 305 303 301 299 297 295 294 296 299 297 297 294 293 294 293 287 289 289 258 234 203 200 200 208 215
342 332 321 315 312 312 310 309 308 307 306 305 304 303 303 300 298 298 297 298 297 297 297 298 299 299 293 285 283 285 288 259 217 199 193 196 202 203
333 327 321 318 317 314 313 309 307 306 306 306 306 306 303 300 299 299 298 297 297 299 303 304 303 299 293 287 285 285 288 271 215 195 199 203 205 208